White Mountain, AK

9:32 AM AKDT on May 26, 2017 (GMT -0800)
White Mountain

Weather History for PAWM - November, 2013

Change the Weather History Date:

Sunday, November 3, 2013

  Actual Average (PAOM) Record (PAOM)
Temperature  
Mean Temperature 28 °F -  
Max Temperature 32 °F 28 °F 49 °F (1928)
Min Temperature 23 °F 17 °F -5 °F (1950)
Degree Days  
Heating Degree Days 38    
Moisture  
Dew Point 28 °F    
Average Humidity 94    
Maximum Humidity 100    
Minimum Humidity 78    
Precipitation  
Precipitation 0.08 in - - ()
Sea Level Pressure  
Sea Level Pressure 29.36 in    
Wind  
Wind Speed 6 mph (NNE)    
Max Wind Speed 10 mph    
Max Gust Speed -    
Visibility 3 miles    
Events Fog , Snow    
Averages and records for this station are not official NWS values.
T = Trace of Precipitation, MM = Missing Value Source: NWS Daily Summary

Daily Weather History Graph

Daily Weather History Graph

Search for Another Location

Airport or City:

Trip Planner

Search our weather history database for the weather conditions in past years. The results will help you decide how hot, cold, wet, or windy it might be!

Date:

Astronomy

Nov. 03, 2013 Rise Set
Actual Time 9:48 AM AKST 5:24 PM AKST
Civil Twilight 8:52 AM AKST 6:20 PM AKST
Nautical Twilight 7:53 AM AKST 7:19 PM AKST
Astronomical Twilight 6:57 AM AKST 8:15 PM AKST
Moon 10:19 AM AKST (11/3) 5:30 PM AKST (11/3)
Length of Visible Light 9h 27m
Length of Day
7h 36m
New Moon, 0% of the Moon is Illuminated
Nov 3
New Moon
Nov 9
First Quarter
Nov 17
Full
Nov 25
Last Quarter
Dec 2
New

Hourly Weather History & Observations

Time (AKST) Temp. Windchill Dew Point Humidity Pressure Visibility Wind Dir Wind Speed Gust Speed Precip Events Conditions
12:58 AM 23.0 °F 13.9 °F 17.1 °F 78% 29.60 in 10.0 mi North 8.1 mph - N/A   Overcast
1:58 AM 23.0 °F 12.4 °F 18.0 °F 81% 29.59 in 10.0 mi North 10.4 mph - N/A   Overcast
1:58 AM 23.0 °F 13.1 °F 18.0 °F 81% 29.57 in 10.0 mi North 9.2 mph - N/A   Overcast
2:58 AM 24.1 °F 14.4 °F 19.0 °F 81% 29.55 in 3.0 mi North 9.2 mph - 0.00 in Snow Light Snow
3:58 AM 25.0 °F 15.5 °F 21.0 °F 85% 29.53 in 9.0 mi North 9.2 mph - 0.00 in Snow Light Snow
4:58 AM 26.1 °F 17.6 °F 21.9 °F 84% 29.50 in 8.0 mi North 8.1 mph - 0.00 in   Overcast
5:58 AM 26.1 °F 17.6 °F 23.0 °F 88% 29.48 in 10.0 mi North 8.1 mph - N/A   Overcast
6:58 AM 27.0 °F 20.5 °F 23.0 °F 85% 29.48 in 7.0 mi North 5.8 mph - N/A   Overcast
7:58 AM 27.0 °F 19.5 °F 24.1 °F 89% 29.47 in 4.0 mi North 6.9 mph - 0.00 in   Overcast
8:06 AM 26.6 °F 20.0 °F 24.8 °F 93% 29.43 in 2.5 mi NNE 5.8 mph - 0.00 in Snow Light Snow
8:18 AM 26.6 °F 21.2 °F 24.8 °F 93% 29.43 in 5.0 mi North 4.6 mph - 0.00 in Snow Light Snow
8:46 AM 28.4 °F 22.2 °F 26.6 °F 93% 29.42 in 9.0 mi NNE 5.8 mph - 0.00 in   Overcast
8:58 AM 28.0 °F 21.7 °F 26.1 °F 92% 29.45 in 8.0 mi NNE 5.8 mph - 0.00 in   Overcast
9:49 AM 28.4 °F 21.2 °F 26.6 °F 93% 29.40 in 9.0 mi North 6.9 mph - N/A   Overcast
9:58 AM 28.0 °F 20.8 °F 26.1 °F 92% 29.44 in 8.0 mi North 6.9 mph - N/A   Overcast
10:13 AM 28.4 °F 22.2 °F 26.6 °F 93% 29.40 in 2.0 mi North 5.8 mph - 0.00 in Snow Light Snow
10:34 AM 28.4 °F 22.2 °F 26.6 °F 93% 29.40 in 3.0 mi North 5.8 mph - 0.00 in Snow Light Snow
10:58 AM 28.0 °F 22.8 °F 26.1 °F 92% 29.43 in 3.0 mi North 4.6 mph - 0.00 in Snow Light Snow
11:07 AM 28.4 °F 22.2 °F 26.6 °F 93% 29.39 in 2.5 mi NNE 5.8 mph - 0.00 in Snow Light Snow
11:20 AM 28.4 °F 23.3 °F 26.6 °F 93% 29.39 in 3.0 mi NNE 4.6 mph - 0.00 in Snow Light Snow
11:29 AM 28.4 °F 23.3 °F 26.6 °F 93% 29.39 in 2.5 mi NNE 4.6 mph - 0.00 in Snow Light Snow
11:50 AM 28.4 °F 23.3 °F 26.6 °F 93% 29.39 in 3.0 mi NNE 4.6 mph - 0.00 in Snow Light Snow
11:58 AM 30.0 °F 25.2 °F 28.0 °F 92% 29.42 in 3.0 mi NE 4.6 mph - 0.00 in Snow Light Snow
12:03 PM 30.2 °F 25.4 °F 28.4 °F 93% 29.38 in 1.8 mi NE 4.6 mph - 0.00 in Snow Light Snow
12:13 PM 30.2 °F 24.3 °F 28.4 °F 93% 29.38 in 1.5 mi NE 5.8 mph - 0.00 in Snow Light Snow
12:20 PM 30.2 °F 24.3 °F 28.4 °F 93% 29.38 in 1.0 mi NE 5.8 mph - 0.00 in Snow Light Snow
12:28 PM 30.2 °F 24.3 °F 28.4 °F 93% 29.37 in 1.5 mi NE 5.8 mph - 0.00 in Snow Light Snow
12:37 PM 30.2 °F 24.3 °F 28.4 °F 93% 29.37 in 2.0 mi NE 5.8 mph - 0.00 in Snow Light Snow
12:46 PM 30.2 °F 25.4 °F 28.4 °F 93% 29.37 in 1.8 mi NE 4.6 mph - 0.00 in Snow Light Snow
12:58 PM 30.9 °F 25.2 °F 28.9 °F 92% 29.41 in 2.0 mi ENE 5.8 mph - 0.00 in Snow Light Snow
1:04 PM 30.2 °F 25.4 °F 28.4 °F 93% 29.37 in 4.0 mi NE 4.6 mph - 0.00 in Snow Light Snow
1:46 PM 32.0 °F 27.5 °F 30.2 °F 93% 29.35 in 2.5 mi NNE 4.6 mph - 0.00 in Snow Light Snow
1:58 PM 32.0 °F 27.5 °F 30.0 °F 92% 29.38 in 2.5 mi NE 4.6 mph - 0.00 in   Overcast
2:05 PM 32.0 °F 27.5 °F 30.2 °F 93% 29.34 in 3.0 mi NE 4.6 mph - 0.00 in Snow Light Snow
2:09 PM 32.0 °F 28.7 °F 30.2 °F 93% 29.34 in 3.0 mi Variable 3.5 mph - 0.00 in Snow Light Snow
2:15 PM 32.0 °F 27.5 °F 30.2 °F 93% 29.34 in 2.5 mi NE 4.6 mph - 0.00 in Snow Light Snow
2:20 PM 32.0 °F 28.7 °F 30.2 °F 93% 29.34 in 1.8 mi NE 3.5 mph - 0.00 in Snow Light Snow
2:47 PM 32.0 °F 28.7 °F 30.2 °F 93% 29.34 in 2.0 mi Variable 3.5 mph - 0.00 in   Overcast
2:51 PM 32.0 °F 28.7 °F 30.2 °F 93% 29.34 in 1.8 mi NNE 3.5 mph - 0.00 in Snow Light Snow
2:58 PM 32.0 °F 28.7 °F 30.0 °F 92% 29.37 in 1.2 mi NNE 3.5 mph - 0.00 in Snow Light Snow
3:08 PM 32.0 °F 28.7 °F 30.2 °F 93% 29.33 in 1.0 mi Variable 3.5 mph - 0.00 in Snow Light Snow
3:16 PM 32.0 °F 28.7 °F 30.2 °F 93% 29.33 in 1.2 mi East 3.5 mph - 0.00 in Snow Light Snow
3:30 PM 32.0 °F 28.7 °F 30.2 °F 93% 29.33 in 1.0 mi Variable 3.5 mph - 0.01 in Snow Light Snow
3:35 PM 32.0 °F 28.7 °F 30.2 °F 93% 29.33 in 1.0 mi NNE 3.5 mph - 0.01 in Snow Light Snow
3:40 PM 32.0 °F 28.7 °F 30.2 °F 93% 29.33 in 1.0 mi NNE 3.5 mph - 0.01 in Snow Light Snow
3:46 PM 32.0 °F 27.5 °F 30.2 °F 93% 29.32 in 0.8 mi North 4.6 mph - 0.01 in Snow Light Snow
3:50 PM 32.0 °F 27.5 °F 30.2 °F 93% 29.32 in 0.8 mi North 4.6 mph - 0.01 in Snow Light Snow
3:58 PM 32.0 °F 26.4 °F 30.0 °F 92% 29.36 in 0.8 mi North 5.8 mph - 0.02 in Snow Light Snow
4:00 PM 32.0 °F 27.5 °F 30.2 °F 93% 29.32 in 1.0 mi North 4.6 mph - 0.00 in Snow Light Snow
4:02 PM 32.0 °F 27.5 °F 30.2 °F 93% 29.32 in 0.8 mi North 4.6 mph - 0.00 in Snow Light Snow
4:06 PM 32.0 °F 27.5 °F 30.2 °F 93% 29.32 in 0.8 mi North 4.6 mph - 0.00 in Snow Light Snow
4:12 PM 32.0 °F 27.5 °F 30.2 °F 93% 29.32 in 0.5 mi North 4.6 mph - 0.00 in Fog , Snow Snow
4:20 PM 32.0 °F 26.4 °F 30.2 °F 93% 29.32 in 0.8 mi North 5.8 mph - 0.00 in Snow Light Snow
4:43 PM 32.0 °F 26.4 °F 30.2 °F 93% 29.31 in 0.8 mi North 5.8 mph - 0.00 in Snow Light Snow
4:47 PM 30.2 °F 23.4 °F 30.2 °F 100% 29.31 in 1.0 mi North 6.9 mph - 0.00 in Snow Light Snow
4:53 PM 30.2 °F 23.4 °F 30.2 °F 100% 29.31 in 1.2 mi North 6.9 mph - 0.00 in Snow Light Snow
4:58 PM 30.9 °F 25.2 °F 30.0 °F 96% 29.34 in 1.5 mi North 5.8 mph - 0.00 in Snow Light Snow
5:23 PM 30.2 °F 24.3 °F 30.2 °F 100% 29.31 in 1.0 mi North 5.8 mph - 0.01 in Snow Light Snow
5:46 PM 30.2 °F 24.3 °F 30.2 °F 100% 29.31 in 1.2 mi North 5.8 mph - 0.01 in Snow Light Snow
5:50 PM 30.2 °F 24.3 °F 30.2 °F 100% 29.30 in 1.0 mi North 5.8 mph - 0.01 in Snow Light Snow
5:58 PM 30.9 °F 25.2 °F 30.0 °F 96% 29.34 in 1.0 mi North 5.8 mph - 0.01 in Snow Light Snow
6:04 PM 30.2 °F 24.3 °F 30.2 °F 100% 29.30 in 1.2 mi North 5.8 mph - 0.00 in Snow Light Snow
6:12 PM 30.2 °F 23.4 °F 30.2 °F 100% 29.30 in 2.0 mi North 6.9 mph - 0.00 in Snow Light Snow
6:27 PM 30.2 °F 23.4 °F 30.2 °F 100% 29.30 in 3.0 mi North 6.9 mph - 0.00 in Snow Light Snow
6:56 PM 32.0 °F 26.4 °F 30.2 °F 93% 29.30 in 5.0 mi NNE 5.8 mph - 0.01 in Snow Light Snow
6:58 PM 32.0 °F 26.4 °F 30.0 °F 92% 29.33 in 5.0 mi NNE 5.8 mph - 0.01 in Snow Light Snow
7:16 PM 32.0 °F 26.4 °F 30.2 °F 93% 29.29 in 4.0 mi NNE 5.8 mph - 0.00 in Snow Light Snow
7:31 PM 32.0 °F 27.5 °F 30.2 °F 93% 29.29 in 2.5 mi NNE 4.6 mph - 0.00 in Snow Light Snow
7:42 PM 32.0 °F 27.5 °F 30.2 °F 93% 29.29 in 2.5 mi NNE 4.6 mph - 0.01 in Snow Light Snow
7:47 PM 32.0 °F 26.4 °F 30.2 °F 93% 29.29 in 2.5 mi NNE 5.8 mph - 0.01 in Snow Light Snow
7:51 PM 32.0 °F 26.4 °F 30.2 °F 93% 29.29 in 3.0 mi NNE 5.8 mph - 0.01 in Snow Light Snow
7:58 PM 32.0 °F 26.4 °F 30.9 °F 96% 29.33 in 3.0 mi NNE 5.8 mph - 0.01 in Snow Light Snow
8:12 PM 32.0 °F 26.4 °F 30.2 °F 93% 29.29 in 2.0 mi NNE 5.8 mph - 0.00 in Snow Light Snow
8:18 PM 32.0 °F 27.5 °F 30.2 °F 93% 29.29 in 1.5 mi North 4.6 mph - 0.00 in Snow Light Snow
8:58 PM 30.9 °F 26.2 °F 30.0 °F 96% 29.32 in 1.5 mi North 4.6 mph - 0.01 in Snow Light Snow
9:22 PM 30.2 °F 24.3 °F 30.2 °F 100% 29.29 in 1.0 mi North 5.8 mph - 0.00 in Snow Light Snow
9:41 PM 30.2 °F 24.3 °F 30.2 °F 100% 29.29 in 1.2 mi NNE 5.8 mph - 0.01 in Snow Light Snow
9:50 PM 30.2 °F 24.3 °F 30.2 °F 100% 29.29 in 2.0 mi North 5.8 mph - 0.01 in Snow Light Snow
9:58 PM 30.9 °F 25.2 °F 30.0 °F 96% 29.32 in 1.5 mi North 5.8 mph - 0.01 in Snow Light Snow
10:16 PM 30.2 °F 24.3 °F 30.2 °F 100% 29.29 in 1.5 mi North 5.8 mph - 0.00 in Snow Light Snow
10:32 PM 30.2 °F 24.3 °F 30.2 °F 100% 29.29 in 1.8 mi North 5.8 mph - 0.01 in Snow Light Snow
10:36 PM 30.2 °F 24.3 °F 30.2 °F 100% 29.29 in 1.8 mi North 5.8 mph - 0.01 in Snow Light Snow
10:43 PM 30.2 °F 25.4 °F 30.2 °F 100% 29.29 in 2.0 mi North 4.6 mph - 0.01 in Snow Light Snow
10:47 PM 30.2 °F 24.3 °F 30.2 °F 100% 29.29 in 2.5 mi North 5.8 mph - 0.01 in Snow Light Snow
10:51 PM 30.2 °F 24.3 °F 30.2 °F 100% 29.29 in 3.0 mi North 5.8 mph - 0.01 in Snow Light Snow
10:56 PM 30.2 °F 24.3 °F 30.2 °F 100% 29.29 in 3.0 mi North 5.8 mph - 0.01 in Snow Light Snow
10:58 PM 30.9 °F 25.2 °F 30.0 °F 96% 29.32 in 3.0 mi North 5.8 mph - 0.01 in Snow Light Snow